Location: Unspecified
(33.6682°S, 0.0000°E)
Time: 16:37:06
(UTC+00:00)

S-56A Canister/Altair - Pass Details

Date: 04 July 2019
Orbit: 632 x 2500 km, 38.9° (Epoch: 18 July)

Event Time Altitude Azimuth Distance (km) Brightness Sun altitude
Exits shadow 04:33:15 63° 235° (SW) 1,619 8.7 -30.8°
Maximum altitude 04:35:03 82° 160° (SSE) 1,577 8.9 -30.5°
Drops below altitude 10° 04:47:13 10° 72° (ENE) 4,598 12.4 -28.0°
Sets 04:51:23 0° 70° (ENE) 5,816 13.3 -27.1°
